Weather in Columbia

United States     39°13′14″N   76°51′34″W
temp.,
°C
wind,
m/s
gust,
m/s
humid.,
%
clouds,
%
prec.,
mm/h
press.,
hPa
HPBL,
m
28 september, tue
tue2823:00+21ssw413505 0.1 1013448
02:00+19sw310573 0.1 1012287
05:00+18sw27625 0.0 1011153
08:00+19w296388 0.1 1012260
11:00+24w385399 0.2 1011654
14:00+27w584638 0.2 10111793
17:00+25nw466192 0.2 1010889
20:00+21nw287626 0.6 1011522
29 september, wed
wed2923:00+18n38840 0.0 1013424
02:00+17n38780 0.0 1013411
05:00+14n411635 0.0 1015450
08:00+14n410625 0.0 1017459
11:00+18n47450 0.0 10181047
14:00+21nnw46370 0.0 10171427
17:00+21nnw46400 0.0 10161520
20:00+18nw00500 0.0 101713
30 september, thu
thu3023:00+16nw22560 0.0 101867
02:00+15nnw25640 0.0 1019197
05:00+14nnw13690 0.0 1019145
08:00+14nnw36660 0.0 1021248
11:00+17n46500 0.0 10221161
14:00+19nnw46412 0.0 10211661
17:00+19nnw464314 0.0 10211734
20:00+16ne35520 0.0 1022436
1 october, fri
fri123:00+14nne37560 0.0 1024407
02:00+12n26580 0.0 1024326
05:00+11nnw13611 0.0 1025181
08:00+11n125815 0.0 1025169
11:00+17n124282 0.0 1025806
14:00+21w23375 0.0 10231322
17:00+20wnw2344100 0.0 10221140
20:00+18ne115787 0.0 102239
2 october, sat
sat223:00+16sse12625 0.0 102248
02:00+15sw12675 0.0 102362
05:00+14s117239 0.0 102235
08:00+14s1273100 0.0 102282
11:00+20s236115 0.0 1021664
14:00+24s235114 0.0 10191160
17:00+25s234597 0.0 10171355
20:00+20se1278100 0.3 1017175